Погода в Онеге

Погода в Онеге : погода сейчас, прогноз погоды и архив. Всё, что Вы хотите узнать о погоде в Онеге!

Хотите узнать прогноз погоды в Онеге? Тогда Вам сюда: Погода в Онеге

Поиск расширенной информации на нашем сайте:

Полезная информация: Монтаж систем отопления Раменское

Другие новости

Новости СМИ2

Главная страница сайта

Новости сайта

03.07.2017

Напоминаем, что на нашем специализированном сайте Метеоцентр.Азия вы можете получить высокодетализированные автоматические прогнозы погоды по пунктам России, СНГ и мира в авиационном формате (включающие направление и скорость ветра, видимость, явления погоды, количество и форму облачности, нижнюю и верхнюю границу облачности).

Рекомендуем: фальцевая кровля из рулонного материала.

Погода в Онеге - сегодня

Время (UTC), дата Ветер
(°,м/с) 
Видим.   Явления Облачность Т
(°С)
Тd
(°С)
f(%) Тe
(°С)
Pmin
(гПа)
dP
(гПа)
Po
(мм)
O2
(г/м3)
Тmin Tmax R s Состояние
почвы
03 12.12.17 120 (ЮВ) 20000 м  {морось}  10/10 240 м 
[St]
-0.4 -1.4 93 -2  1010.5  -0.3  757  306  -0.5    0.8  19  равномерный
мокрый или
старый снег
100% 
06 12.12.17 140 (ЮВ) 20000 м  {морось}  10/10 240 м 
[St]
-0.4 -1.6 92 -1  1011.4  0.9  757  306           
09 12.12.17 130 (ЮВ) 20000 м  {снег}  10/10 330 м 
[St]
-0.3 -1.6 91 -2  1011.4  757  306           
12 12.12.17 120 (ЮВ) 20000 м  {снег}  10/10 420 м 
[St]
-0.6 -2.2 89 -2  1010.8  -0.6  757  306           
15 12.12.17 160 (Ю) 4{12}  20000 м    10/10 330 м 
[St]
-0.8 -2.7 87 -3  1009.1  -1.7  756  306    -0.2  0.0     
18 12.12.17 160 (Ю) 4-12{12}  20000 м  позёмок  10/10 540 м 
[Sc]
-0.9 -3.8 81 -3  1006.2  -2.9  754  305           
21 12.12.17 150 (ЮВ) 5-13{16}  20000 м  позёмок  10/10 600 м 
[Sc]
-0.7 -3.5 81 -4  1000.8  -5.3  749  303           
00 13.12.17 150 (ЮВ) 4-12{14}  10 км  слаб. снег  10/10 210 м 
[Frnb|Ns]
-0.9 -2.1 92 -3  996.2  -4.6  746  302           
03 13.12.17 160 (Ю) 4{14}  20000 м  позёмок{снег}  10/4 600 м средняя 
[Sc|Ac cast]
-0.7 -1.5 94 -3  992.9  -3.3  744  301  -1.1    19  равномерный
мокрый или
старый снег
100% 
06 13.12.17 140 (ЮВ) 7-12{02}  20000 м  {снег}  10/10 300 м 
[St]
+0.4 -1.8 85 -3  990.4  2.6  742  299           
09 13.12.17 160 (Ю) //-9{12}  10 км  слаб. ливневой дождь со снегом  10/10 300 м кучево-дожд. 
[Cb cap]
+1.6 +0.5 92 +2  988.1  -2.3  740  296           
12 13.12.17 170 (Ю) 10 км  слаб. ливневой дождь  10/10 400 м кучево-дожд. 
[Cb cap]
+1.6 +0.8 94 -2  986.4  -1.7  739  296           
15 13.12.17 250 (З) 6-12{12}  20000 м  снежные кристаллы{ливн. осадки}  10/10 800 м кучево-дожд. 
[Cb cap]
+0.6 -2.6 79 -3  990.1  3.8  741  298    +2.1     
18 13.12.17 240 (ЮЗ) 8-14{14}  20000 м  {ливн. осадки, снег}  10/10 1050 м 
[St]
-0.4 -6.4 64 -5  993.6  3.4  744  301           
21 13.12.17 220 (ЮЗ) 5{15}  20000 м    10/10 900 м 
[St]
-1.1 -6.4 67 -4  996.2  2.6  746  302           
00 14.12.17 230 (ЮЗ) 9-18{18}  20000 м    10/10 800 м 
[Sc]
-0.2 -5.2 69 -5  997.9  1.7  747  302           
03 14.12.17 210 (ЮЗ) 6-12{18}  20000 м    10/10 630 м 
[Sc]
+0.9 -3 75 -2  998.7  0.8  748  301  -1.2    0.0  16  равномерный
мокрый или
старый снег
100% 
06 14.12.17 210 (ЮЗ) 5{12}  20000 м    10/10 700 м 
[Sc]
+1 -2.1 80 -2  1000.6  1.9  749  301           
09 14.12.17 220 (ЮЗ) 6-10{11}  20000 м    10/4 600 м средняя 
[Sc|Ac und]
+2.1 -1.3 78 -1  1002.9  2.3  751  300           
12 14.12.17 200 (Ю) 4{11}  20000 м    10/4 600 м средняя 
[Sc|Ac und]
+1.8 -1.7 78 1004.7  1.8  752  301           
15 14.12.17 190 (Ю) 20000 м    10/10 1500 м 
[Sc]
+1.1 -2.7 76 -2  1005.9  1.2  753  303    +2.1       
18 14.12.17 170 (Ю) 20000 м    10/10 1080 м 
[Sc]
-0.3 -3.5 79 -2  1006.6  0.7  754  304           
21 14.12.17 160 (Ю) 20000 м    10/10 900 м 
[Sc]
-0.6 -3.3 82 -2  1006.8  0.2  754  305           
00 15.12.17 170 (Ю) 20000 м    10/10 750 м 
[Sc]
-1 -4.4 78 -3  1006.8  -0.1  754  305           
03 15.12.17 170 (Ю) 20000 м    10/10 630 м 
[Sc]
-2 -5.7 76 -5  1006.4  -0.3  754  307  -2      16  равномерный
мокрый или
старый снег
100% 
Время (UTC), дата Ветер
(°,м/с) 
Видим.   Явления Облачность Т
(°С)
Тd
(°С)
f(%) Тe
(°С)
Pmin
(гПа)
dP
(гПа)
Po
(мм)
O2
(г/м3)
Тmin Tmax R s Состояние
почвы

Для получения пояснительной информации подведите курсор к названию столбца.

ПОГОДА в Онеге - архив

Всё, что Вы хотите узнать о погоде в Онеге - удобно и подробно!

Выберите нужную дату (начиная с 1 января 2015* года) и нажмите кнопку "Найти".
Будут отображены архивные сводки погоды по пункту Онега, начиная с указанной даты.


Отображать данные в формате CSV (для использования в таблицах Excel)


Внимание! Наш архив погоды предназначен исключительно для личного некоммерческого использования в познавательных целях. Если Вам необходимы официальные справки о состоянии погоды (для производственных, юридических, коммерческих и т.п. целей), обращайтесь в органы Росгидромета.

*Примечание: данная дата относится к архиву по метеостанциям СССР (Россия, СНГ, Балтия).
Архив по метеостанциям Зарубежной Европы и Азии (кроме Китая) хранится 10 дней, по другим регионам земного шара (Китай, Африка, Америка, Австралия, Океания) - 1 день.

Онега - район местоположения метеостанции


Название, широта, долгота, высота метеостанции:
Онега 63.9°ш. 38.1°д. 13 м над ур. моря [Российская Федерация]

Дополнительная информация

В oтличие oт бoльшинства пoгoдных сайтoв мы публикуем пoдрoбную метеoинфoрмацию в детальнoм прoфессиoнальнoм фoрмате.

Характеристики температуры и влажнoсти вoздуха измеряются на высoте 2 м в тени вдали oт зданий и деревьев.
Скoрoсть ветра измеряется на высoте 10 м (на урoвне рoста челoвека скoрoсть ветра ниже в 1.5-2 раза). Если метеoстанция нахoдится в гoрoде или в лесу, тo скoрoсть ветра занижена на 2-4 м/с пo сравнению с oткрытым местoм. Скoрoсть ветра над акватoриями крупных рек и oзёр, а также на вершинах хoлмoв на 2-5 м/с выше, чем в oбычных услoвиях.
Атмoсфернoе давление в разных тoчках местнoсти мoжет значительнo oтличаться oт давления на метеoстанции, в зависимoсти oт услoвий рельефа (при пoдъёме на 10 м давление пoнижается примернo на 1 мм рт.ст.).